Winnipeg, Manitoba

6:32 AM CST on November 18, 2017 (GMT -0600)
Winnipeg International Airport

Weather History for CYWG - November, 2013

Change the Weather History Date:

Monday, November 25, 2013

  Actual Average Record
Temperature  
Mean Temperature 24 °F -  
Max Temperature 33 °F 17 °F 39 °F (1997)
Min Temperature 12 °F 0 °F -18 °F (1996)
Degree Days  
Heating Degree Days 42    
Moisture  
Dew Point 19 °F    
Average Humidity 77    
Maximum Humidity 93    
Minimum Humidity 67    
Precipitation  
Precipitation 0.00 in 0.02 in - ()
Sea Level Pressure  
Sea Level Pressure 29.97 in    
Wind  
Wind Speed 18 mph ()    
Max Wind Speed 33 mph    
Max Gust Speed 39 mph    
Visibility 11.9 miles    
Events Snow    
Averages and records for this station are not official NWS values.
T = Trace of Precipitation, MM = Missing Value Source: Averaged Metar Reports

Daily Weather History Graph

Daily Weather History Graph

Search for Another Location

Airport or City:

Trip Planner

Search our weather history database for the weather conditions in past years. The results will help you decide how hot, cold, wet, or windy it might be!

Date:

Astronomy

Nov. 25, 2013 Rise Set
Actual Time 7:57 AM CST 4:34 PM CST
Civil Twilight 7:20 AM CST 5:11 PM CST
Nautical Twilight 6:40 AM CST 5:51 PM CST
Astronomical Twilight 6:01 AM CST 6:29 PM CST
Moon No Moon Rise 12:51 PM CST (11/25)
Length of Visible Light 9h 50m
Length of Day
8h 36m
Waning Gibbous, 51% of the Moon is Illuminated
Nov 25
Waning Gibbous
Nov 25
Last Quarter
Dec 2
New
Dec 9
First Quarter
Dec 17
Full

Hourly Weather History & Observations

Time (CST) Temp. Windchill Dew Point Humidity Pressure Visibility Wind Dir Wind Speed Gust Speed Precip Events Conditions
12:00 AM 33.8 °F 22.5 °F 26.6 °F 75% 29.73 in 15.0 mi NW 19.6 mph 28.8 mph N/A   Mostly Cloudy
1:00 AM 32.0 °F 21.6 °F 26.6 °F 80% 29.75 in 15.0 mi WNW 15.0 mph - N/A   Mostly Cloudy
1:46 AM 33.8 °F 21.3 °F 28.4 °F 81% 29.76 in 6.0 mi WNW 24.2 mph 31.1 mph N/A Snow Light Snow Showers
2:00 AM 33.8 °F 22.8 °F 28.4 °F 81% 29.76 in 15.0 mi WNW 18.4 mph 32.2 mph N/A Snow Light Snow Showers
2:24 AM 33.8 °F 22.2 °F 24.8 °F 70% 29.77 in 15.0 mi NW 20.7 mph 29.9 mph N/A   Mostly Cloudy
3:00 AM 30.2 °F 18.5 °F 24.8 °F 80% 29.79 in 15.0 mi NW 17.3 mph 24.2 mph N/A   Scattered Clouds
4:00 AM 32.0 °F 20.5 °F 24.8 °F 75% 29.81 in 15.0 mi NW 18.4 mph 25.3 mph N/A   Overcast
5:00 AM 32.0 °F 21.2 °F 26.6 °F 80% 29.83 in 15.0 mi WNW 16.1 mph - N/A   Overcast
6:00 AM 30.2 °F 19.8 °F 24.8 °F 80% 29.85 in 15.0 mi NW 13.8 mph - N/A   Mostly Cloudy
7:00 AM 30.2 °F 20.2 °F 26.6 °F 86% 29.86 in 15.0 mi WNW 12.7 mph - N/A   Mostly Cloudy
7:05 AM 32.0 °F 22.1 °F 28.4 °F 87% 29.87 in 15.0 mi WNW 13.8 mph - N/A Snow Light Snow Showers
7:32 AM 30.2 °F 18.5 °F 28.4 °F 93% 29.88 in 2.0 mi WNW 17.3 mph - N/A Snow Snow Showers
7:45 AM 30.2 °F 14.5 °F 23.0 °F 75% 29.89 in 5.0 mi NNW 33.4 mph 39.1 mph N/A Snow Snow Showers
8:00 AM 28.4 °F 13.8 °F 21.2 °F 74% 29.90 in 3.0 mi NNW 25.3 mph 33.4 mph N/A Snow Snow Showers
8:21 AM 26.6 °F 13.4 °F 23.0 °F 86% 29.91 in 15.0 mi NNW 18.4 mph 29.9 mph N/A   Overcast
9:00 AM 26.6 °F 12.4 °F 17.6 °F 69% 29.93 in 15.0 mi NW 21.9 mph 32.2 mph N/A   Overcast
10:00 AM 24.8 °F 10.0 °F 17.6 °F 74% 29.97 in 15.0 mi NNW 21.9 mph - N/A   Mostly Cloudy
11:00 AM 24.8 °F 9.6 °F 17.6 °F 74% 29.99 in 15.0 mi NNW 23.0 mph - N/A   Overcast
12:00 PM 23.0 °F 6.6 °F 15.8 °F 74% 30.01 in 15.0 mi NNW 25.3 mph 32.2 mph N/A   Overcast
1:00 PM 23.0 °F 6.9 °F 15.8 °F 74% 30.04 in 15.0 mi NW 24.2 mph 29.9 mph N/A   Overcast
2:00 PM 23.0 °F 6.6 °F 14.0 °F 68% 30.05 in 15.0 mi NW 25.3 mph 38.0 mph N/A   Overcast
3:00 PM 21.2 °F 6.0 °F 14.0 °F 74% 30.08 in 15.0 mi NW 19.6 mph 26.5 mph N/A   Overcast
4:00 PM 21.2 °F 5.2 °F 14.0 °F 74% 30.10 in 15.0 mi NW 21.9 mph 28.8 mph N/A   Overcast
5:00 PM 21.2 °F 6.4 °F 12.2 °F 68% 30.12 in 15.0 mi NW 18.4 mph - N/A   Overcast
6:00 PM 19.4 °F 4.1 °F 12.2 °F 74% 30.12 in 15.0 mi NNW 18.4 mph 25.3 mph N/A Snow Light Snow
6:31 PM 19.4 °F 4.1 °F 14.0 °F 80% 30.12 in 3.0 mi NW 18.4 mph - N/A Snow Light Snow Showers
7:00 PM 19.4 °F 3.2 °F 15.8 °F 86% 30.12 in 2.0 mi NW 20.7 mph - N/A Snow Light Snow Showers
7:14 PM 19.4 °F 3.2 °F 14.0 °F 80% 30.12 in 10.0 mi NW 20.7 mph 29.9 mph N/A Snow Light Snow Showers
8:00 PM 17.6 °F -1.3 °F 12.2 °F 79% 30.12 in 6.0 mi NW 27.6 mph 38.0 mph N/A Snow Light Snow Showers
8:10 PM 17.6 °F -1.3 °F 12.2 °F 79% 30.13 in 1.0 mi NNW 27.6 mph 38.0 mph N/A Snow Light Snow Showers
8:19 PM 15.8 °F -5.0 °F 10.4 °F 79% 30.14 in 6.0 mi NW 32.2 mph 39.1 mph N/A Snow Light Snow Showers
9:00 PM 14.0 °F -4.7 °F 5.0 °F 67% 30.15 in 15.0 mi NNW 23.0 mph 38.0 mph N/A Snow Light Snow Showers
10:00 PM 14.0 °F -4.7 °F 6.8 °F 73% 30.18 in 15.0 mi NW 23.0 mph - N/A Snow Light Snow Showers
11:00 PM 12.2 °F -6.3 °F 5.0 °F 73% 30.19 in 15.0 mi NW 20.7 mph - N/A   Scattered Clouds